DW9470 Weather Reports


time (UTC)temp
C
wind
direction
speed
KPH
gust
KPH
rain 1hr
cm
rain 24hr
cm
rain mn
cm
humidity
%
barometer
mb
20260502170511 15 18 1.6 1.6 0.00 0.00 0.00 31 1020.3
20260502164011 14 280 14.5 1.6 0.00 0.00 0.00 37 1020.6
20260502163511 14 222 6.4 1.6 0.00 0.00 0.00 34 1020.6
20260502163011 13 319 1.6 1.6 0.00 0.00 0.00 34 1020.6
20260502162511 13 253 0.0 1.6 0.00 0.00 0.00 37 1020.7
20260502162011 13 198 0.0 1.6 0.00 0.00 0.00 37 1020.7
20260502161511 13 311 1.6 1.6 0.00 0.00 0.00 37 1020.8
20260502161010 12 169 12.9 1.6 0.00 0.00 0.00 38 1020.8
20260502160511 13 224 8.0 1.6 0.00 0.00 0.00 36 1020.9
20260502152011 11 300 8.0 1.6 0.00 0.00 0.00 41 1021.2
20260502151511 11 253 11.3 1.6 0.00 0.00 0.00 40 1021.2
20260502151011 11 240 1.6 1.6 0.00 0.00 0.00 40 1021.3
20260502150511 11 276 1.6 1.6 0.00 0.00 0.00 42 1021.4
20260502130510 5 284 6.4 1.6 0.00 0.00 0.00 66 1022.0
20260502123511 3 282 6.4 0.0 0.00 0.00 0.00 71 1022.0
20260502123010 2 280 4.8 0.0 0.00 0.00 0.00 72 1022.0
20260502122510 2 293 3.2 0.0 0.00 0.00 0.00 73 1021.9
20260502122010 1 278 0.0 0.0 0.00 0.00 0.00 74 1021.9
20260502121510 1 302 0.0 0.0 0.00 0.00 0.00 73 1021.9
20260502121010 1 307 0.0 0.0 0.00 0.00 0.00 74 1021.8
20260502120510 0 311 0.0 0.0 0.00 0.00 0.00 74 1021.8
20260502115510 0 283 1.6 0.0 0.00 0.00 0.00 75 1021.8
20260502115010 0 281 0.0 0.0 0.00 0.00 0.00 75 1021.7
20260502114010 0 283 0.0 0.0 0.00 0.00 0.00 75 1021.7
20260502113510 0 284 0.0 0.0 0.00 0.00 0.00 75 1021.6
20260502113010 0 299 0.0 0.0 0.00 0.00 0.00 75 1021.6
20260502112511 0 299 0.0 0.0 0.00 0.00 0.00 75 1021.6
20260502112011 0 297 0.0 0.0 0.00 0.00 0.00 75 1021.6
20260502111510 0 290 0.0 0.0 0.00 0.00 0.00 75 1021.6
20260502111010 0 290 0.0 0.0 0.00 0.00 0.00 75 1021.6
20260502110510 -1 290 0.0 0.0 0.00 0.00 0.00 75 1021.5
20260502110010 -1 291 0.0 0.0 0.00 0.00 0.00 75 1021.5
20260502105510 0 287 0.0 0.0 0.00 0.00 0.00 75 1021.6
20260502105010 0 287 0.0 0.0 0.00 0.00 0.00 75 1021.5
20260502104010 0 280 1.6 0.0 0.00 0.00 0.00 75 1021.5
20260502103510 0 283 1.6 0.0 0.00 0.00 0.00 75 1021.5
20260502103011 -1 273 0.0 0.0 0.00 0.00 0.00 75 1021.5
20260502102510 -1 276 0.0 0.0 0.00 0.00 0.00 75 1021.5
20260502101510 0 274 0.0 0.0 0.00 0.00 0.00 75 1021.5
20260502101010 0 288 0.0 0.0 0.00 0.00 0.00 75 1021.5
20260502100510 0 285 0.0 0.0 0.00 0.00 0.00 75 1021.5
20260502091510 -1 266 0.0 0.0 0.00 0.00 0.00 75 1021.3
20260502090511 -1 266 0.0 0.0 0.00 0.00 0.00 75 1021.3
20260502071511 0 290 0.0 0.0 0.00 0.00 0.00 72 1021.4
20260502071010 0 290 0.0 0.0 0.00 0.00 0.00 72 1021.4
20260502070511 0 290 0.0 0.0 0.00 0.00 0.00 72 1021.3
20260502070012 1 290 0.0 0.0 0.00 0.00 0.00 71 1021.4
20260502065511 1 290 0.0 0.0 0.00 0.00 0.00 71 1021.4
20260502064511 1 290 0.0 0.0 0.00 0.00 0.00 71 1021.4
20260502064010 1 290 0.0 0.0 0.00 0.00 0.00 71 1021.4
20260502063510 1 290 0.0 0.0 0.00 0.00 0.00 71 1021.5
20260502063011 1 290 0.0 0.0 0.00 0.00 0.00 72 1021.5
20260502062511 1 290 0.0 0.0 0.00 0.00 0.00 72 1021.5
20260502062011 1 290 0.0 0.0 0.00 0.00 0.00 71 1021.5
20260502061511 1 290 0.0 0.0 0.00 0.00 0.00 71 1021.6
20260502060511 1 290 0.0 0.0 0.00 0.00 0.00 71 1021.5
20260502060011 1 290 0.0 0.0 0.00 0.00 0.00 71 1021.6
20260502055511 1 290 0.0 0.0 0.00 0.00 0.00 72 1021.5
20260502054511 1 290 0.0 0.0 0.00 0.00 0.00 71 1021.4
20260502053511 1 290 0.0 0.0 0.00 0.00 0.00 71 1021.4
20260502052511 1 290 0.0 0.0 0.00 0.00 0.00 70 1021.2
20260502052011 1 290 0.0 0.0 0.00 0.00 0.00 69 1021.2
20260502051511 1 290 0.0 0.0 0.00 0.00 0.00 70 1021.1
20260502051012 1 290 0.0 0.0 0.00 0.00 0.00 70 1021.2
20260502050511 1 290 0.0 0.0 0.00 0.00 0.00 70 1021.1
20260502050011 1 290 0.0 0.0 0.00 0.00 0.00 70 1021.0
20260502045511 1 290 0.0 0.0 0.00 0.00 0.00 70 1021.0
20260502045012 1 290 0.0 0.0 0.00 0.00 0.00 69 1021.0
20260502044511 1 290 0.0 0.0 0.00 0.00 0.00 69 1021.0
20260502044011 1 290 0.0 0.0 0.00 0.00 0.00 69 1020.9
20260502043511 1 290 0.0 0.0 0.00 0.00 0.00 68 1020.9
20260502042511 2 290 0.0 0.0 0.00 0.00 0.00 68 1020.8
20260502042011 2 290 0.0 0.0 0.00 0.00 0.00 68 1020.9
20260502041511 2 290 0.0 0.0 0.00 0.00 0.00 68 1020.9
20260502041011 2 289 0.0 0.0 0.00 0.00 0.00 68 1020.9
20260502040511 2 290 0.0 0.0 0.00 0.00 0.00 67 1020.9
20260502035511 2 290 0.0 0.0 0.00 0.00 0.00 66 1020.9
20260502035011 2 291 0.0 0.0 0.00 0.00 0.00 65 1020.9
20260502034511 2 334 0.0 0.0 0.00 0.00 0.00 65 1020.8
20260502034012 2 335 0.0 0.0 0.00 0.00 0.00 65 1020.9
20260502033510 2 283 0.0 0.0 0.00 0.00 0.00 64 1020.8
20260502032510 3 283 0.0 0.0 0.00 0.00 0.00 62 1020.7
20260502032010 3 283 0.0 0.0 0.00 0.00 0.00 62 1020.7
20260502031510 3 283 0.0 0.0 0.00 0.00 0.00 62 1020.7
20260502030510 4 53 0.0 0.0 0.00 0.00 0.00 59 1020.6
20260502025510 5 53 0.0 0.0 0.00 0.00 0.00 58 1020.6
20260502025010 5 53 0.0 0.0 0.00 0.00 0.00 57 1020.6
20260502024510 5 53 0.0 0.0 0.00 0.00 0.00 56 1020.5
20260502023510 6 46 0.0 0.0 0.00 0.00 0.00 55 1020.4
20260502022510 6 302 0.0 0.0 0.00 0.00 0.00 54 1020.4
20260502022010 6 53 0.0 0.0 0.00 0.00 0.00 54 1020.3
20260502021510 6 53 0.0 0.0 0.00 0.00 0.00 53 1020.2
20260502021010 7 53 0.0 0.0 0.00 0.00 0.00 52 1020.1
20260502015510 7 49 0.0 0.0 0.00 0.00 0.00 50 1019.9
20260502015010 7 312 0.0 0.0 0.00 0.00 0.00 50 1019.8
20260502014010 8 27 0.0 0.0 0.00 0.00 0.00 48 1019.7
20260502013510 8 273 0.0 0.0 0.00 0.00 0.00 47 1019.7
20260502013010 8 291 0.0 0.0 0.00 0.00 0.00 46 1019.6
20260502012510 8 331 0.0 0.0 0.00 0.00 0.00 45 1019.5
20260502011510 9 283 0.0 0.0 0.00 0.00 0.00 45 1019.4
20260502011010 9 301 0.0 0.0 0.00 0.00 0.00 44 1019.4
20260502010512 10 308 0.0 0.0 0.00 0.00 0.00 43 1019.3
20260502010010 10 37 0.0 0.0 0.00 0.00 0.00 43 1019.3
20260502005510 10 30 6.4 0.0 0.00 0.00 0.00 44 1019.3
20260502005010 10 86 3.2 0.0 0.00 0.00 0.00 43 1019.2
20260502004510 10 57 0.0 0.0 0.00 0.00 0.00 42 1019.1
20260502003510 11 339 0.0 1.6 0.00 0.00 0.00 40 1019.0
20260502003010 11 290 0.0 1.6 0.00 0.00 0.00 40 1018.9
20260502002510 11 19 0.0 1.6 0.00 0.00 0.00 39 1018.9
20260502002010 12 311 8.0 1.6 0.00 0.00 0.00 36 1018.9
20260502001510 12 288 1.6 0.0 0.00 0.00 0.00 35 1018.9
20260502001010 12 342 0.0 0.0 0.00 0.00 0.00 35 1018.9
20260502000512 12 277 4.8 0.0 0.00 0.00 0.00 35 1018.8
20260502000010 12 291 3.2 0.0 0.00 0.00 0.00 34 1018.7
20260501235511 12 345 3.2 1.6 0.00 0.00 0.00 35 1018.7
20260501235010 12 314 4.8 1.6 0.00 0.00 0.00 34 1018.8
20260501234511 12 312 6.4 1.6 0.00 0.00 0.00 34 1018.8
20260501234010 12 307 1.6 1.6 0.00 0.00 0.00 35 1018.8
20260501233510 12 312 4.8 1.6 0.00 0.00 0.00 36 1018.8
20260501233010 13 334 3.2 1.6 0.00 0.00 0.00 36 1018.7
20260501232510 13 307 1.6 1.6 0.00 0.00 0.00 36 1018.7
20260501232010 13 40 1.6 1.6 0.00 0.00 0.00 35 1018.7
20260501231510 13 326 1.6 1.6 0.00 0.00 0.00 35 1018.7
20260501231011 13 315 0.0 1.6 0.00 0.00 0.00 35 1018.7
20260501230010 12 193 0.0 0.0 0.00 0.00 0.00 37 1018.7
20260501225510 11 285 0.0 0.0 0.00 0.00 0.00 39 1018.6
20260501225010 11 323 1.6 0.0 0.00 0.00 0.00 38 1018.6
20260501224512 12 257 0.0 1.6 0.00 0.00 0.00 37 1018.6
20260501223511 13 307 4.8 1.6 0.00 0.00 0.00 37 1018.6
20260501223010 12 266 3.2 1.6 0.00 0.00 0.00 37 1018.6
20260501222510 12 11 3.2 1.6 0.00 0.00 0.00 38 1018.6
20260501221010 12 311 6.4 1.6 0.00 0.00 0.00 37 1018.6
20260501220511 12 132 4.8 1.6 0.00 0.00 0.00 39 1018.6
20260501220010 11 60 1.6 1.6 0.00 0.00 0.00 42 1018.5
20260501215510 11 353 0.0 1.6 0.00 0.00 0.00 40 1018.6
20260501215010 11 309 1.6 0.0 0.00 0.00 0.00 41 1018.6
20260501214511 11 319 3.2 0.0 0.00 0.00 0.00 41 1018.6
20260501214011 11 300 0.0 0.0 0.00 0.00 0.00 42 1018.6
20260501213012 11 51 0.0 1.6 0.00 0.00 0.00 42 1018.6
20260501212511 11 303 0.0 1.6 0.00 0.00 0.00 41 1018.6
20260501211511 11 37 3.2 0.0 0.00 0.00 0.00 42 1018.6
20260501211011 11 283 0.0 1.6 0.00 0.00 0.00 43 1018.6
20260501210511 11 334 0.0 0.0 0.00 0.00 0.00 42 1018.7
20260501210011 11 321 1.6 0.0 0.00 0.00 0.00 42 1018.7
20260501205511 11 231 0.0 1.6 0.00 0.00 0.00 42 1018.7
20260501205011 11 37 6.4 1.6 0.00 0.00 0.00 43 1018.7
20260501204511 11 30 1.6 1.6 0.00 0.00 0.00 42 1018.8
20260501204011 11 285 0.0 1.6 0.00 0.00 0.00 42 1018.7
20260501203012 11 304 0.0 1.6 0.00 0.00 0.00 42 1018.8
20260501202511 11 293 0.0 1.6 0.00 0.00 0.00 42 1018.8
20260501202011 11 277 1.6 0.0 0.00 0.00 0.00 43 1018.9
20260501201511 11 338 1.6 0.0 0.00 0.00 0.00 43 1018.9
20260501201011 11 309 1.6 1.6 0.00 0.00 0.00 44 1018.9
20260501200511 11 300 0.0 1.6 0.00 0.00 0.00 43 1018.8
20260501200011 11 326 0.0 1.6 0.00 0.00 0.00 43 1018.8
20260501195511 11 44 9.7 1.6 0.00 0.00 0.00 45 1018.8
20260501195011 11 355 0.0 1.6 0.00 0.00 0.00 44 1018.7
20260501194511 11 61 8.0 1.6 0.00 0.00 0.00 44 1018.9
20260501193511 11 330 1.6 1.6 0.00 0.00 0.00 46 1018.7
20260501193011 11 281 3.2 1.6 0.00 0.00 0.00 45 1018.8
20260501192511 11 323 8.0 1.6 0.00 0.00 0.00 46 1018.8
20260501192011 11 54 14.5 1.6 0.00 0.00 0.00 46 1018.8
20260501191511 11 303 3.2 0.0 0.00 0.00 0.00 46 1018.9
20260501190511 11 28 4.8 1.6 0.00 0.00 0.00 47 1018.8
20260501190012 11 44 1.6 1.6 0.00 0.00 0.00 47 1018.9
20260501185511 11 22 0.0 1.6 0.00 0.00 0.00 46 1018.8
20260501185011 11 26 8.0 1.6 0.00 0.00 0.00 48 1018.8
20260501184511 11 309 3.2 1.6 0.00 0.00 0.00 46 1018.9
20260501184011 11 306 0.0 1.6 0.00 0.00 0.00 48 1018.8
20260501182511 10 288 0.0 1.6 0.00 0.00 0.00 49 1018.9
20260501182011 10 310 6.4 1.6 0.00 0.00 0.00 51 1018.9
20260501181511 10 18 0.0 0.0 0.00 0.00 0.00 52 1018.9
20260501181011 10 327 0.0 1.6 0.00 0.00 0.00 50 1018.9
20260501180511 10 327 3.2 1.6 0.00 0.00 0.00 50 1019.1
20260501180011 10 42 1.6 0.0 0.00 0.00 0.00 53 1019.1
20260501175511 10 303 3.2 0.0 0.00 0.00 0.00 51 1019.1